DW3068 Weather Reports


time (UTC)temp
C
wind
direction
speed
KPH
gust
KPH
rain 1hr
cm
rain 24hr
cm
rain mn
cm
humidity
%
barometer
mb
20260503194324 8 87 0.0 0.0 0.00 0.20 0.00 54 1021.8
20260503193818 8 87 0.0 3.2 0.00 0.20 0.00 53 1021.8
20260503193320 8 87 0.0 3.2 0.00 0.20 0.00 54 1021.8
20260503192830 8 87 0.0 1.6 0.00 0.20 0.00 54 1021.8
20260503192343 8 87 0.0 4.8 0.00 0.20 0.00 53 1021.7
20260503191836 8 87 0.0 6.4 0.00 0.20 0.00 53 1021.7
20260503191340 9 87 3.2 9.7 0.00 0.20 0.00 52 1021.6
20260503190833 9 82 4.8 9.7 0.00 0.20 0.00 52 1021.5
20260503190319 9 75 6.4 12.9 0.00 0.20 0.00 52 1021.5
20260503185832 9 71 8.0 14.5 0.00 0.20 0.00 51 1021.3
20260503185346 9 64 11.3 20.9 0.00 0.20 0.00 51 1021.2
20260503184833 10 70 12.9 20.9 0.00 0.20 0.00 51 1021.1
20260503184327 9 78 11.3 19.3 0.00 0.20 0.00 51 1021.1
20260503183830 10 96 8.0 16.1 0.00 0.20 0.00 51 1021.0
20260503183345 10 61 9.7 12.9 0.00 0.20 0.00 51 1021.0
20260503182839 10 88 6.4 12.9 0.00 0.20 0.00 51 1020.9
20260503182325 10 105 8.0 14.5 0.00 0.20 0.00 51 1020.9
20260503181834 10 66 6.4 14.5 0.00 0.20 0.00 51 1020.9
20260503181321 10 49 6.4 9.7 0.00 0.20 0.00 51 1020.9
20260503180834 10 84 6.4 9.7 0.00 0.20 0.00 50 1020.8
20260503180327 10 49 6.4 14.5 0.00 0.20 0.00 49 1020.8
20260503175902 10 66 8.0 14.5 0.00 0.20 0.00 49 1020.8
20260503175327 10 69 8.0 12.9 0.00 0.20 0.00 49 1020.8
20260503174834 10 78 6.4 16.1 0.00 0.20 0.00 48 1020.8
20260503174319 11 76 8.0 19.3 0.00 0.20 0.00 48 1020.8
20260503173833 11 62 11.3 17.7 0.00 0.20 0.00 48 1020.7
20260503173318 11 61 11.3 19.3 0.00 0.20 0.00 47 1020.6
20260503172831 11 78 11.3 27.4 0.00 0.20 0.00 47 1020.6
20260503171843 11 71 16.1 27.4 0.00 0.20 0.00 46 1020.6
20260503171338 11 129 14.5 22.5 0.00 0.20 0.00 45 1020.5
20260503170824 11 63 14.5 22.5 0.00 0.20 0.00 45 1020.5
20260503170317 12 82 11.3 24.1 0.00 0.20 0.00 44 1020.3
20260503150817 13 317 12.9 24.1 0.00 0.20 0.00 40 1020.2
20260503150353 13 58 12.9 22.5 0.00 0.20 0.00 41 1020.1
20260503131349 13 30 11.3 32.2 0.00 0.20 0.00 40 1020.8
20260503130841 13 5 14.5 25.7 0.00 0.20 0.00 39 1020.6
20260503130323 13 355 16.1 25.7 0.00 0.20 0.00 39 1020.8
20260503110331 11 293 4.8 14.5 0.00 0.20 0.00 44 1021.6
20260503090324 10 57 22.5 30.6 0.00 0.20 0.00 45 1022.3
20260503081316 10 327 8.0 20.9 0.00 0.20 0.00 47 1022.5
20260503080847 10 65 8.0 20.9 0.00 0.20 0.00 48 1022.6
20260503080340 10 44 9.7 22.5 0.00 0.20 0.00 49 1022.5
20260503072829 8 61 11.3 25.7 0.00 0.20 0.00 48 1022.6
20260503072324 8 94 14.5 25.7 0.00 0.20 0.00 49 1022.7
20260503071859 8 118 9.7 25.7 0.00 0.20 0.00 50 1022.6
20260503071325 8 94 12.9 19.3 0.00 0.20 0.00 52 1022.7
20260503070834 8 75 9.7 17.7 0.00 0.20 0.00 53 1022.7
20260503070318 8 66 8.0 19.3 0.00 0.20 0.00 55 1022.6
20260503060328 7 82 12.9 20.9 0.00 0.20 0.00 65 1022.4
20260503054820 6 81 14.5 22.5 0.00 0.20 0.00 68 1022.4
20260503054324 6 80 12.9 22.5 0.00 0.20 0.00 68 1022.2
20260503053832 6 76 12.9 22.5 0.00 0.20 0.00 69 1022.2
20260503053328 6 74 12.9 19.3 0.00 0.20 0.00 69 1022.2
20260503052843 6 119 11.3 20.9 0.00 0.20 0.00 70 1022.2
20260503052327 6 78 9.7 17.7 0.00 0.20 0.00 70 1022.2
20260503051842 6 58 12.9 25.7 0.00 0.20 0.00 70 1022.2
20260503051349 6 71 11.3 25.7 0.00 0.20 0.00 70 1022.1
20260503050842 6 84 11.3 17.7 0.00 0.20 0.00 71 1022.0
20260503050315 5 73 9.7 16.1 0.00 0.20 0.00 71 1022.0
20260503045829 5 88 9.7 14.5 0.00 0.20 0.00 71 1022.2
20260503045314 6 69 8.0 17.7 0.00 0.20 0.00 71 1022.1
20260503044820 6 90 9.7 19.3 0.00 0.20 0.00 71 1021.8
20260503044334 6 67 11.3 19.3 0.00 0.20 0.00 72 1022.0
20260503043818 5 76 6.4 19.3 0.00 0.20 0.00 73 1021.9
20260503043332 5 82 9.7 19.3 0.00 0.20 0.00 73 1021.7
20260503042905 5 57 9.7 16.1 0.00 0.20 0.00 73 1021.7
20260503042322 5 74 9.7 16.1 0.00 0.20 0.00 73 1021.5
20260503041817 5 53 11.3 16.1 0.00 0.20 0.00 74 1021.4
20260503041350 5 88 8.0 12.9 0.00 0.20 0.00 74 1021.2
20260503040815 5 68 8.0 11.3 0.00 0.20 0.00 74 1021.2
20260503040330 5 69 6.4 12.9 0.00 0.20 0.00 74 1021.1
20260503035823 5 79 8.0 16.1 0.00 0.20 0.00 74 1021.0
20260503035338 5 79 11.3 17.7 0.00 0.20 0.00 74 1020.9
20260503034817 5 61 9.7 14.5 0.00 0.20 0.00 76 1021.0
20260503034331 5 82 9.7 16.1 0.00 0.20 0.00 76 1020.8
20260503033824 5 77 11.3 16.1 0.00 0.20 0.00 76 1020.8
20260503033358 5 82 8.0 16.1 0.00 0.20 0.00 76 1020.8
20260503032820 5 81 8.0 20.9 0.00 0.20 0.00 76 1020.7
20260503032332 5 90 9.7 20.9 0.00 0.20 0.00 76 1020.8
20260503031818 5 107 11.3 19.3 0.00 0.20 0.00 77 1020.8
20260503031333 5 105 11.3 19.3 0.00 0.20 0.00 77 1020.7
20260503030816 5 94 11.3 16.1 0.00 0.20 0.00 77 1020.7
20260503030332 6 85 9.7 16.1 0.00 0.20 0.00 77 1020.8
20260503025818 6 83 8.0 16.1 0.00 0.20 0.00 77 1020.8
20260503025328 6 74 6.4 16.1 0.00 0.20 0.00 77 1020.8
20260503024834 6 110 9.7 16.1 0.00 0.20 0.00 76 1020.7
20260503024320 6 72 9.7 17.7 0.00 0.20 0.00 76 1020.7
20260503023834 6 86 6.4 16.1 0.00 0.20 0.00 77 1020.7
20260503023329 6 71 4.8 6.4 0.00 0.20 0.00 77 1020.6
20260503022815 6 63 3.2 4.8 0.00 0.20 0.00 77 1020.5
20260503022330 6 87 3.2 9.7 0.00 0.20 0.00 77 1020.5
20260503021843 6 103 3.2 14.5 0.00 0.20 0.00 77 1020.4
20260503021327 6 82 8.0 14.5 0.00 0.20 0.00 78 1020.3
20260503020841 6 73 6.4 16.1 0.00 0.20 0.00 79 1020.4
20260503020328 6 116 8.0 16.1 0.00 0.20 0.00 80 1020.5
20260503015843 6 99 1.6 11.3 0.00 0.20 0.00 80 1020.3
20260503015336 6 100 4.8 11.3 0.00 0.20 0.00 80 1020.4
20260503014901 6 82 3.2 4.8 0.00 0.20 0.00 80 1020.5
20260503014355 6 331 1.6 4.8 0.00 0.20 0.00 80 1020.5
20260503013821 6 331 1.6 4.8 0.00 0.20 0.00 81 1020.5
20260503013336 6 333 1.6 3.2 0.00 0.20 0.00 81 1020.6
20260503012839 6 333 0.0 4.8 0.00 0.20 0.00 81 1020.4
20260503012325 6 333 1.6 6.4 0.00 0.20 0.00 81 1020.5
20260503011818 6 323 3.2 6.4 0.00 0.20 0.00 82 1020.5
20260503011322 6 243 1.6 3.2 0.00 0.20 0.00 82 1020.6
20260503010818 6 227 0.0 4.8 0.00 0.20 0.00 83 1020.4
20260503010333 6 227 0.0 4.8 0.00 0.20 0.00 83 1020.4
20260503005819 6 254 1.6 6.4 0.00 0.20 0.00 83 1020.3
20260503005353 6 263 1.6 4.8 0.00 0.20 0.00 84 1020.6
20260503004816 6 262 0.0 6.4 0.00 0.20 0.00 84 1020.4
20260503004351 6 262 1.6 6.4 0.00 0.20 0.00 83 1020.3
20260503003827 6 186 1.6 6.4 0.00 0.20 0.00 84 1020.4
20260503003332 6 198 3.2 6.4 0.00 0.20 0.00 83 1020.3
20260503002827 6 96 1.6 4.8 0.00 0.20 0.00 83 1020.6
20260503002333 6 104 0.0 1.6 0.00 0.20 0.00 83 1020.4
20260503001828 6 104 0.0 0.0 0.00 0.20 0.00 83 1020.4
20260503001337 6 104 0.0 4.8 0.00 0.20 0.00 83 1020.5
20260503000842 6 104 3.2 4.8 0.00 0.20 0.00 83 1020.5
20260503000315 6 135 0.0 1.6 0.00 0.20 0.00 83 1020.5
20260502235829 6 135 0.0 3.2 0.00 0.20 0.00 83 1020.5
20260502235314 6 135 1.6 3.2 0.00 0.20 0.00 83 1020.6
20260502234822 6 135 1.6 4.8 0.00 0.20 0.00 83 1020.6
20260502234336 6 134 1.6 4.8 0.00 0.20 0.00 83 1020.5
20260502233849 6 122 0.0 0.0 0.00 0.20 0.00 83 1020.7
20260502233333 6 122 0.0 3.2 0.00 0.20 0.00 82 1020.7
20260502232827 6 122 0.0 3.2 0.00 0.20 0.00 82 1020.8
20260502232343 6 122 0.0 0.0 0.00 0.20 0.00 81 1020.7
20260502231826 6 122 0.0 0.0 0.00 0.20 0.00 81 1020.7
20260502231321 6 122 0.0 0.0 0.00 0.20 0.00 80 1020.7
20260502230827 6 122 0.0 0.0 0.00 0.20 0.00 80 1020.9
20260502230321 6 122 0.0 1.6 0.00 0.20 0.00 80 1020.8
20260502225827 6 122 0.0 1.6 0.00 0.20 0.00 80 1020.8
20260502225342 6 122 0.0 4.8 0.00 0.20 0.00 80 1020.8
20260502224843 6 122 1.6 4.8 0.00 0.20 0.00 80 1020.7
20260502224315 6 115 3.2 4.8 0.00 0.20 0.00 80 1020.7
20260502223827 6 111 1.6 6.4 0.00 0.20 0.00 81 1020.9
20260502223321 6 111 3.2 6.4 0.00 0.20 0.00 81 1021.0
20260502222826 6 107 1.6 4.8 0.00 0.20 0.00 82 1021.1
20260502222320 6 92 3.2 4.8 0.00 0.20 0.00 82 1021.1
20260502221824 6 92 3.2 4.8 0.00 0.20 0.00 82 1021.1
20260502221319 6 91 1.6 4.8 0.00 0.20 0.00 82 1021.2
20260502220834 6 65 1.6 8.0 0.10 0.20 0.00 82 1021.2
20260502220319 6 74 4.8 6.4 0.10 0.20 0.00 81 1021.3
20260502215833 6 103 3.2 9.7 0.10 0.20 0.05 81 1021.2
20260502215316 6 100 4.8 9.7 0.10 0.20 0.05 81 1021.2
20260502214852 6 65 6.4 8.0 0.20 0.20 0.05 80 1021.2
20260502214336 6 87 3.2 6.4 0.20 0.20 0.05 80 1021.2
20260502213823 7 82 4.8 9.7 0.20 0.20 0.05 80 1021.3
20260502213339 7 94 4.8 11.3 0.20 0.20 0.05 79 1021.3
20260502212833 7 98 8.0 11.3 0.20 0.20 0.05 79 1021.3
20260502212339 7 105 8.0 11.3 0.20 0.20 0.05 78 1021.3
20260502211832 7 101 4.8 14.5 0.20 0.20 0.05 78 1021.3
20260502211328 7 101 8.0 14.5 0.20 0.20 0.05 78 1021.3
20260502210842 7 79 9.7 16.1 0.10 0.10 0.03 78 1021.4
20260502210326 7 63 8.0 17.7 0.10 0.10 0.03 78 1021.5
20260502205820 7 69 11.3 20.9 0.10 0.10 0.03 78 1021.6
20260502205356 8 65 14.5 30.6 0.10 0.10 0.03 77 1021.7
20260502204840 8 77 14.5 24.1 0.00 0.00 0.00 74 1021.9
20260502204327 8 38 4.8 9.7 0.00 0.00 0.00 72 1021.4
20260502203841 8 71 6.4 14.5 0.00 0.00 0.00 73 1021.3
20260502203327 8 76 6.4 12.9 0.00 0.00 0.00 74 1021.3
20260502202823 8 79 3.2 6.4 0.00 0.00 0.00 75 1021.5
20260502202326 8 351 3.2 8.0 0.00 0.00 0.00 74 1021.5
20260502201815 8 294 3.2 9.7 0.00 0.00 0.00 73 1021.3
20260502201331 8 59 6.4 14.5 0.00 0.00 0.00 72 1021.2
20260502200836 8 78 6.4 14.5 0.00 0.00 0.00 72 1021.2
20260502200327 8 91 8.0 12.9 0.00 0.00 0.00 72 1021.2
20260502195841 8 109 4.8 14.5 0.00 0.00 0.00 72 1021.3
20260502195325 8 97 6.4 14.5 0.00 0.00 0.00 72 1021.3
20260502194832 8 83 8.0 11.3 0.00 0.00 0.00 71 1021.1